• Processing (Info)

  • MPEC 2014-W109: 2014 WT202

    The following Minor Planet Electronic Circular may be linked-to from your own Web pages, but must not otherwise be redistributed electronically.

    A form allowing access to any MPEC is at the bottom of this page.


    Read MPEC 2014-W108 Read MPEC 2014-W110


    M.P.E.C. 2014-W109                               Issued 2014 Nov. 26, 15:28 UT
    
         The Minor Planet Electronic Circulars contain information on unusual
             minor planets and routine data on comets.  They are published
       on behalf of Commission 20 of the International Astronomical Union by the
              Minor Planet Center, Smithsonian Astrophysical Observatory,
                              Cambridge, MA 02138, U.S.A.
    
                 Prepared using the Tamkin Foundation Computer Network
    
                                  MPC@CFA.HARVARD.EDU
                URL https://www.minorplanetcenter.net/    ISSN 1523-6714
    
                                      2014 WT202
    
    Observations:
         K14WK2T* C2014 11 23.32882 07 59 41.17 +51 26 00.8          17.2 VqEW109703
         K14WK2T  C2014 11 23.33334 07 59 41.82 +51 27 35.7          17.2 VqEW109703
         K14WK2T  C2014 11 23.33789 07 59 42.46 +51 29 10.8          17.2 VqEW109703
         K14WK2T  C2014 11 23.34243 07 59 43.10 +51 30 46.2          17.1 VqEW109703
         K14WK2T  C2014 11 23.44374 07 59 55.95 +52 05 48.5          17.2 VqEW109703
         K14WK2T  C2014 11 23.44695 07 59 56.31 +52 06 54.5          17.4 VqEW109703
         K14WK2T  C2014 11 23.45024 07 59 56.73 +52 08 02.4          17.2 VqEW109703
         K14WK2T  C2014 11 23.45345 07 59 57.16 +52 09 08.5          17.2 VqEW109703
         K14WK2T  C2014 11 23.45664 07 59 57.51 +52 10 13.3          17.3 VqEW109703
         K14WK2T  C2014 11 23.52537 08 00 05.81 +52 33 32.5          17.3 VqEW109703
         K14WK2T  C2014 11 23.52706 08 00 05.99 +52 34 06.9          17.1 VqEW109703
         K14WK2T  C2014 11 23.52791 08 00 06.08 +52 34 23.3          16.9 VqEW109703
         K14WK2T  C2014 11 23.61245 08 00 37.31 +53 02 21.3          17.5 VqEW109900
         K14WK2T  C2014 11 23.61748 08 00 38.17 +53 04 06.0          17.7 VqEW109900
         K14WK2T  C2014 11 23.62251 08 00 38.96 +53 05 50.3          17.5 VqEW109900
         K14WK2T  C2014 11 23.72592 08 00 54.46 +53 41 18.6          17.3 RoEW109300
         K14WK2T  C2014 11 23.72855 08 00 54.78 +53 42 12.2          17.3 RoEW109300
         K14WK2T  C2014 11 23.72920 08 00 54.86 +53 42 25.5          17.1 RoEW109300
         K14WK2T  C2014 11 23.73051 08 00 55.05 +53 42 52.1          17.2 RoEW109300
         K14WK2T  C2014 11 23.73181 08 00 55.21 +53 43 18.9          17.2 RoEW109300
         K14WK2T  C2014 11 23.73247 08 00 55.32 +53 43 32.2          17.3 RoEW109300
         K14WK2T KC2014 11 23.80614 08 01 13.15 +54 06 01.3                qEW109J95
         K14WK2T KC2014 11 23.80931 08 01 13.94 +54 07 05.8                qEW109J95
         K14WK2T KC2014 11 23.81323 08 01 14.86 +54 08 26.3          17.4 RqEW109J95
         K14WK2T KC2014 11 23.88798 08 01 31.36 +54 33 49.2          17.2 RoEW109J16
         K14WK2T KC2014 11 23.88941 08 01 31.64 +54 34 18.4          17.5 RoEW109J16
         K14WK2T KC2014 11 23.89086 08 01 32.03 +54 34 47.9          17.7 RoEW109J16
         K14WK2T KC2014 11 23.89236 08 01 32.30 +54 35 18.5          16.8 RoEW109J16
         K14WK2T KC2014 11 23.93543 08 01 41.94 +54 50 06.2          17.2 VqEW109970
         K14WK2T KC2014 11 23.93648 08 01 42.19 +54 50 27.5          17.4 VqEW109970
         K14WK2T KC2014 11 23.93787 08 01 42.42 +54 50 55.8          17.3 VqEW109970
         K14WK2T KC2014 11 24.09329 08 02 10.50 +55 43 20.3          17.1 RqEW109J69
         K14WK2T KC2014 11 24.09593 08 02 10.91 +55 44 13.1          17.1 RqEW109J69
         K14WK2T KC2014 11 24.09858 08 02 11.35 +55 45 06.1          17.2 RqEW109J69
         K14WK2T KC2014 11 24.10123 08 02 11.76 +55 45 59.1          17.2 RqEW109J69
         K14WK2T KC2014 11 24.17023 08 02 20.43 +56 09 00.8          17.2  qEW109104
         K14WK2T KC2014 11 24.17297 08 02 20.87 +56 09 54.8                qEW109104
         K14WK2T KC2014 11 24.17577 08 02 21.31 +56 10 49.9          17.2  qEW109104
         K14WK2T  C2014 11 24.34318 08 03 10.80 +57 05 39.0          17.1 VqEW109703
         K14WK2T  C2014 11 24.34784 08 03 11.59 +57 07 12.1          17.3 VqEW109703
         K14WK2T  C2014 11 24.35248 08 03 12.35 +57 08 44.7          17.1 VqEW109703
         K14WK2T KC2014 11 24.91825 08 05 29.22 +60 08 55.1          17.3 V EW109L04
         K14WK2T KC2014 11 24.91957 08 05 29.52 +60 09 20.7          17.6 V EW109L04
         K14WK2T KC2014 11 24.92079 08 05 29.79 +60 09 43.9          17.6 V EW109L04
         K14WK2T KC2014 11 24.92200 08 05 30.07 +60 10 07.2          17.6 V EW109L04
         K14WK2T  C2014 11 25.06337 08 06 01.68 +60 54 38.2          16.4 RqEW109C23
         K14WK2T  C2014 11 25.06417 08 06 01.78 +60 54 52.6          16.4 RqEW109C23
         K14WK2T  C2014 11 25.06457 08 06 01.82 +60 54 59.8          16.7 RqEW109C23
         K14WK2T  C2014 11 25.06497 08 06 01.95 +60 55 08.1          16.7 RqEW109C23
         K14WK2T  C2014 11 25.06578 08 06 02.11 +60 55 23.2          16.5 RqEW109C23
         K14WK2T  C2014 11 25.06618 08 06 02.25 +60 55 30.5          16.6 RqEW109C23
         K14WK2T  C2014 11 25.06738 08 06 02.44 +60 55 53.3          16.6 RqEW109C23
         K14WK2T  C2014 11 25.06779 08 06 02.51 +60 56 00.8          16.5 RqEW109C23
         K14WK2T  C2014 11 25.06859 08 06 02.69 +60 56 15.6          16.5 RqEW109C23
         K14WK2T  C2014 11 25.06899 08 06 02.74 +60 56 23.6          16.5 RqEW109C23
         K14WK2T  C2014 11 25.06939 08 06 02.93 +60 56 30.8          16.7 RqEW109C23
         K14WK2T  C2014 11 25.06980 08 06 02.93 +60 56 38.1          16.4 RqEW109C23
         K14WK2T  C2014 11 25.07020 08 06 03.01 +60 56 45.6          16.5 RqEW109C23
         K14WK2T  C2014 11 25.07060 08 06 03.02 +60 56 53.7          16.6 RqEW109C23
         K14WK2T KC2014 11 26.11227 08 11 18.84 +66 06 11.0          16.3 RqEW109G48
         K14WK2T KC2014 11 26.11295 08 11 19.11 +66 06 23.3          16.2 RqEW109G48
         K14WK2T KC2014 11 26.11378 08 11 19.37 +66 06 38.6          16.9 RqEW109G48
         K14WK2T  C2014 11 26.41110 08 12 55.16 +67 32 42.4          17.5  rEW109718
         K14WK2T  C2014 11 26.41289 08 12 55.69 +67 33 12.6          17.4  rEW109718
         K14WK2T  C2014 11 26.41466 08 12 56.23 +67 33 43.8          17.4  rEW109718
         K14WK2T  C2014 11 26.41644 08 12 56.54 +67 34 12.5          17.4  rEW109718
         K14WK2T  C2014 11 26.41822 08 12 57.06 +67 34 42.8          17.5  rEW109718
    
    Observer details:
    104 San Marcello Pistoiese.  Observers P. Bacci, D. Antonacci, A. Depieri.
        Measurers P. Bacci, L. Tesi, G. Fagioli.  0.60-m f/4 reflector + CCD.
    300 Bisei Spaceguard Center--BATTeRS.  Observers A. Asami, K. Nishiyama.
        1.0-m f/3.0 reflector + CCD.
    703 Catalina Sky Survey.  Observers R. E. Hill, R. G. Matheny.  Measurers
        E. J. Christensen, A. R. Gibbs, A. D. Grauer, R. E. Hill, J. A. Johnson,
        R. A. Kowalski, R. G. Matheny, S. M. Larson, F. C. Shelly.  0.68-m Schmidt
        + CCD.
    718 Tooele.  Observer P. Wiggins.  0.35-m f/5.5 Schmidt-Cassegrain + CCD.
    900 Moriyama.  Observer Y. Ikari.  0.26-m f/7.0 reflector + CCD.
    970 Chelmsford.  Observer N. James.  0.28-m f/10 Schmidt-Cassegrain + CCD.
    C23 Olmen.  Observer A. Diepvens.  0.20-m f/9 refractor + CCD.
    G48 Doc Greiner Research Obs., Rancho Hildalgo.  Observer M. Mills.  0.4-m
        f/10 Schmidt-Cassegrain + CCD.
    J16 An Carraig Observatory, Loughinisland.  Observer K. Rooney.  0.4-m f/6.8
        Cassegrain + CCD.
    J69 North Observatory, Clanfield.  Observer D. Briggs.  0.41-m f/4.5 Newtonian
        reflector + CCD.
    J95 Great Shefford.  Observer P. Birtwhistle.  0.40-m f/6.0 Schmidt-Cassegrain
        + CCD.
    L04 ROASTERR-1 Observatory, Cluj-Napoca.  Observer L. Hudin.  0.3-m f/5.0
        reflector + CCD.
    
    Orbital elements:
    2014 WT202                                          PHA, Earth MOID = 0.0385 AU
    Epoch 2014 Dec. 9.0 TT = JDT 2457000.5                  MPC
    M 195.32034              (2000.0)            P               Q
    n   1.03904705     Peri.  185.66620     -0.43739156     +0.83309657
    a   0.9654117      Node    58.83474     -0.80874602     -0.19978296
    e   0.0634444      Incl.   23.30902     -0.39321558     -0.51578762
    P   0.95           H   21.0           G   0.15           U   6
    Residuals in seconds of arc
    141123 703  0.2-  0.1-    141123 J95  0.2-  0.2+    141125 C23  0.1-  0.1-
    141123 703  0.2-  0.0     141123 J16  0.2+  0.2+    141125 C23  0.4-  0.4-
    141123 703  0.2-  0.3-    141123 J16  0.1-  0.2+    141125 C23  0.0   0.3+
    141123 703  0.1-  0.0     141123 J16  0.5+  0.1+    141125 C23  0.1-  0.2+
    141123 703  0.0   0.4-    141123 J16  0.0   0.1+    141125 C23  0.4+  0.1-
    141123 703  0.2-  0.3-    141123 970  0.0   0.1-    141125 C23  0.0   0.1+
    141123 703  0.0   0.0     141123 970  0.3+  0.2-    141125 C23  0.1-  0.1-
    141123 703  0.5+  0.2+    141123 970  0.1-  0.2-    141125 C23  0.0   0.4-
    141123 703  0.2+  0.4-    141124 J69  0.1+  0.7+    141125 C23  0.2-  0.1+
    141123 703  0.4+  0.1+    141124 J69  0.1-  0.7+    141125 C23  0.6+  0.2-
    141123 703  0.2+  0.3+    141124 J69  0.0   0.7+    141125 C23  0.0   0.7-
    141123 703  0.0   0.4-    141124 J69  0.1-  0.7+    141125 C23  0.0   0.7-
    141123 900  0.4-  0.1-    141124 104  0.1-  0.2-    141125 C23  0.6-  0.1-
    141123 900  0.0   0.1+    141124 104  0.1+  0.0     141126 G48  0.1-  1.3-
    141123 900  0.2-  0.0     141124 104  0.3+  0.2+    141126 G48  0.1-  1.0-
    141123 300  0.3+  0.1-    141124 703  0.2-  0.3-    141126 G48  0.5-  0.4-
    141123 300  0.0   0.1-    141124 703  0.1-  0.1-    141126 718  0.1+  0.3+
    141123 300  0.0   0.1-    141124 703  0.2-  0.1+    141126 718  0.3+  0.2+
    141123 300  0.1+  0.2-    141124 L04  0.1-  0.2+    141126 718  0.7+  1.5+
    141123 300  0.0   0.1+    141124 L04  0.1-  0.4+    141126 718  0.3-  0.1+
    141123 300  0.2+  0.1-    141124 L04  0.1-  0.1+    141126 718  0.1-  0.3+
    141123 J95  0.2-  0.1+    141124 L04  0.0   0.1+
    141123 J95  0.0   0.2-    141125 C23  0.4+  0.6+
    
    Ephemeris:
    2014 WT202               a,e,i = 0.97, 0.06, 23                  q = 0.9042
    Date    TT    R. A. (2000) Decl.     Delta      r     Elong.  Phase     V
    2014 10 27    07 23 13.0 -28 27 27   0.1838  1.0196    92.8    76.8    20.0
    ...
    2014 11 11    07 37 35.4 -06 43 52   0.09828 1.0251   108.2    66.6    18.4
    ...
    2014 11 19    07 49 10.6 +26 09 54   0.06886 1.0264   121.8    54.9    17.2
    ...
    2014 11 25    08 05 39.7 +60 34 27   0.07108 1.0267   122.0    54.7    17.3
    2014 11 26    08 10 28.3 +65 35 03   0.07375 1.0266   120.7    55.8    17.4
    2014 11 27    08 16 40.0 +70 11 30   0.07695 1.0266   119.2    57.1    17.6
    ...
    2014 12 03    14 19 19.5 +87 35 04   0.1037  1.0260   110.0    64.5    18.4
    ...
    2014 12 11    19 18 35.7 +76 24 05   0.1485  1.0242   101.3    70.6    19.4
    ...
    2014 12 26    19 44 50.3 +66 49 24   0.2345  1.0179    91.7    75.0    20.5
    
    A. U. Tomatic                (C) Copyright 2014 MPC           M.P.E.C. 2014-W109
    

    Read MPEC 2014-W108 Read MPEC 2014-W110


    MPEC number:

    Enter an MPEC number in one of the following forms:

    • 1997-B01 (the full form)
    • J97B01 (the packed version of the full form)
    • B01 (the abbreviated form)